This is the latest recevied weather packets stored in our database for station/object K4CRS-13. If no packets are shown the sender has not sent any weather packets the latest 10 day(s).
| Time | Temp. | Humidity | Pressure | Rain* | Wind** | Luminosity | Snow |
|---|---|---|---|---|---|---|---|
| 1787601068 | 32.22° C | 44% | 1050.9 hPa | 0 mm | - | 672 W/m² | - |
| 1787600763 | 31.67° C | 48% | 1051.2 hPa | 0 mm | - | 685 W/m² | - |
| 1787600459 | 31.67° C | 45% | 1051.2 hPa | 0 mm | - | 691 W/m² | - |
| 1787600155 | 32.22° C | 46% | 1051.4 hPa | 0 mm | - | 701 W/m² | - |
| 1787599852 | 32.22° C | 43% | 1051.4 hPa | 0 mm | - | 720 W/m² | - |
| 1787599547 | 32.22° C | 42% | 1051.3 hPa | 0 mm | - | 724 W/m² | - |
| 1787599244 | 31.67° C | 41% | 1051.2 hPa | 0 mm | - | 730 W/m² | - |
| 1787598939 | 32.22° C | 44% | 1051.5 hPa | 0 mm | - | 750 W/m² | - |
| 1787598635 | 31.67° C | 40% | 1051.3 hPa | 0 mm | - | 749 W/m² | - |
| 1787598334 | 31.67° C | 47% | 1051.4 hPa | 0 mm | - | 747 W/m² | - |
| 1787598031 | 31.67° C | 47% | 1051.6 hPa | 0 mm | - | 744 W/m² | - |
| 1787597730 | 32.22° C | 50% | 1051.7 hPa | 0 mm | - | 753 W/m² | - |
| 1787597429 | 32.22° C | 46% | 1051.9 hPa | 0 mm | - | 748 W/m² | - |
| 1787597124 | 31.67° C | 47% | 1051.7 hPa | 0 mm | - | 770 W/m² | - |
| 1787596821 | 31.11° C | 45% | 1051.9 hPa | 0 mm | - | 767 W/m² | - |
| 1787596516 | 31.11° C | 46% | 1051.8 hPa | 0 mm | - | 790 W/m² | - |
| 1787596211 | 31.67° C | 46% | 1051.8 hPa | 0 mm | - | 331 W/m² | - |
| 1787595907 | 32.22° C | 48% | 1051.7 hPa | 0 mm | - | 776 W/m² | - |
| 1787595602 | 32.22° C | 47% | 1051.7 hPa | 0 mm | - | 783 W/m² | - |
| 1787595298 | 31.67° C | 48% | 1051.7 hPa | 0 mm | - | 797 W/m² | - |
| 1787594997 | 32.22° C | 45% | 1052 hPa | 0 mm | - | 798 W/m² | - |
| 1787594693 | 31.67° C | 44% | 1052 hPa | 0 mm | - | 815 W/m² | - |
| 1787594391 | 32.78° C | 47% | 1052 hPa | 0 mm | - | 801 W/m² | - |
| 1787594086 | 31.67° C | 49% | 1052.3 hPa | 0 mm | - | 800 W/m² | - |
| 1787593782 | 32.22° C | 47% | 1052.4 hPa | 0 mm | - | 801 W/m² | - |
* Rain latest hour (hover to see other rain measurements)
** Current wind speed in m/s (hover to see current wind gust speed)